CZ-3B DEB, 40815

Orbit data source: Space-Track

CZ-3B DEB, 40815 is space debris in HEO originally from a launch on Sat, 04 Sep 2010 UTC launched from the Xichang Space Center, China (XSC). Debris objects in space refer to the collection of defunct objects orbiting the Earth. Examples of debris include non-operational satellites, rocket bodies, and fragments generated from explosions, collisions, or faulty payload assembly.

Loading next visibility...
Identifier
40815, 2010-042Y
Orbit
HEO
Country
Flag of CNCN / PRC
Related business
Manufacturer
CALT
Mission
Spacecraft
Bus & Motor
Unknown
Mass
Unknown
Launch date (UTC)
2010-09-04 (16 years ago)
Launch vehicle
Unknown
Launch site
Xichang Space Center, China (XSC)
Object type
Payload
Rocket body
Debris
Shape & HBR
Unknown shape, 0.2 m
Radar Cross Section
Medium (>0.1 m² and <1 m²)

Expand to show TLE details & history
Last TLE update: 5 days ago

TLE from 5 days ago
0 CZ-3B DEB
1 40815U 10042Y   26142.06244258  .00000048  00000-0 -73527-3 0  9991
2 40815  25.9832 140.9039 7320587 203.6386  89.1951  1.91044991  6282
Epoch: 2026-05-22T01:29Z
TLE epoch observation values (Epoch: 2026-05-22T01:29:55.038Z)
Latitude
-0.00022°
Longitude
-121.34839°
Altitude
32,249.139 km
Speed
2.472 km/s
True Right ascension
09h 23m 19s
True Declination
0° 00' 01"
Sunlit
Object was in daylight at epoch
Visualization orbit readout
Latitude
Unknown
Longitude
Unknown
Altitude
Unknown
Speed
Unknown
Apparent Right ascension
Unknown
Apparent Declination
Unknown
Sunlit
N/A
Visualization observer readout
Local Sidereal Time
23:16:43
Azimuth
Unknown
Elevation
Unknown
Doppler factor
Unknown
Orbital elements
Apogee altitude
41,147.89 km
Perigee altitude
973.915 km
Semi-major axis
27,439.04 km
Eccentricity
0.73206
Inclination
25.9832°
RAAN
140.9039°
Arg. of periapsis
203.6386°
True anomaly
156.3652°
Mean anomaly
89.1951°
Eccentric anomaly
123.9774°
Mean motion
0.47752 °/min
Orbital period
753.9 mins
BSTAR
-0.00073527
Loading maneuver chart data...
Computing Atmospheric mass density...
Loading historical data...
Loading historical data...
Loading historical data...
Loading historical data...
Loading historical data...
Loading historical data...
Loading historical data...

Documentation

Showing up to 5 results
|